Cloverdale, Indiana, United States (46120)
Lat: 39.51N, Lon: 86.79W
Wx Zone: INZ045
Local Info
Past Weather Observations for Wednesday, April 27, 2016

NOTE: This archive is for the closest National Weather Service station to Cloverdale. Information may differ from the station used for current weather conditions.

Click here for Long-term Archive

Time Weather Temperature Dewpoint Humidity Pressure Winds Precip Visibility
23:53
Overcast
Thunder Storms
63°F / 17°C 59°F / 15°C 88% 29.77 in
(1008 mb)
SE 4.6 mph
(SE 7 kph)
0.05 in
(1.27 mm)
4SM
23:41
Overcast
Thunder Storms
63°F / 17°C 61°F / 16°C 94% 29.77 in
(1008 mb)
S 6.9 mph
(S 11 kph)
0.01 in
(0.25 mm)
10SM
23:30
Overcast
Thunder Storms
63°F / 17°C 61°F / 16°C 94% 29.74 in
(1007 mb)
SE 8.1 mph
(SE 13 kph)
- 10SM
23:17
Mostly Cloudy
63°F / 17°C 61°F / 16°C 94% 29.74 in
(1007 mb)
SE 9.2 mph
(SE 15 kph)
- 10SM
22:53
Mostly Cloudy
63°F / 17°C 61°F / 16°C 94% 29.74 in
(1007 mb)
SE 10.4 mph
(SE 17 kph)
0.00 in
(0.00 mm)
10SM
22:05
Mostly Cloudy
63°F / 17°C 59°F / 15°C 88% 29.74 in
(1007 mb)
SE 12.7 mph
(SE 20 kph)
0.00 in
(0.00 mm)
10SM
21:53
Overcast
Thunder Storms
63°F / 17°C 61°F / 16°C 94% 29.77 in
(1008 mb)
SE 17.3 mph
(SE 28 kph)
0.19 in
(4.83 mm)
10SM
21:48
Overcast
Thunder Storms
63°F / 17°C 61°F / 16°C 94% 29.77 in
(1008 mb)
SE 13.8 mph
(SE 22 kph)
0.19 in
(4.83 mm)
8SM
21:33
Overcast
Thunder Storms
63°F / 17°C 61°F / 16°C 94% 29.77 in
(1008 mb)
SE 16.1 mph
(SE 26 kph)
0.17 in
(4.32 mm)
6SM
21:16
Overcast
Thunder Storms
63°F / 17°C 61°F / 16°C 94% 29.8 in
(1009 mb)
SE 10.4 mph
(SE 17 kph)
0.12 in
(3.05 mm)
4SM
21:06
Overcast
Heavy Rain
63°F / 17°C 61°F / 16°C 94% 29.8 in
(1009 mb)
SE 9.2 mph
(SE 15 kph)
0.07 in
(1.78 mm)
3SM
20:53
Overcast
Thunder Storms
63°F / 17°C 61°F / 16°C 94% 29.8 in
(1009 mb)
SE 8.1 mph
(SE 13 kph)
0.14 in
(3.56 mm)
4SM
20:51
Overcast
Thunder Storms
63°F / 17°C 61°F / 16°C 94% 29.8 in
(1009 mb)
SE 8.1 mph
(SE 13 kph)
0.13 in
(3.30 mm)
5SM
20:39
Overcast
Thunder Storms
63°F / 17°C 61°F / 16°C 94% 29.8 in
(1009 mb)
S 5.8 mph
(S 9 kph)
0.09 in
(2.29 mm)
5SM
20:05
Overcast
Thunder Storms
63°F / 17°C 61°F / 16°C 94% 29.77 in
(1008 mb)
SE 6.9 mph
(SE 11 kph)
0.02 in
(0.51 mm)
5SM
19:53
Overcast
Thunder Storms
63°F / 17°C 59°F / 15°C 88% 29.77 in
(1008 mb)
SE 6.9 mph
(SE 11 kph)
0.06 in
(1.52 mm)
6SM
19:38
Overcast
Thunder Storms
63°F / 17°C 59°F / 15°C 88% 29.74 in
(1007 mb)
SE 9.2 mph
(SE 15 kph)
0.04 in
(1.02 mm)
6SM
19:24
Overcast
Thunder Storms
63°F / 17°C 59°F / 15°C 88% 29.74 in
(1007 mb)
SE 8.1 mph
(SE 13 kph)
0.02 in
(0.51 mm)
5SM
18:53
Overcast
Thunder Storms
63°F / 17°C 59°F / 15°C 88% 29.74 in
(1007 mb)
E 6.9 mph
(E 11 kph)
0.00 in
(0.00 mm)
3SM
18:01
Overcast
Fog And Mist
63°F / 17°C 59°F / 15°C 88% 29.74 in
(1007 mb)
E 6.9 mph
(E 11 kph)
- 4SM
17:53
Overcast
Fog And Mist
63°F / 17°C 59°F / 15°C 88% 29.74 in
(1007 mb)
E 6.9 mph
(E 11 kph)
0.00 in
(0.00 mm)
4SM
16:53
Overcast
Fog And Mist
63°F / 17°C 57°F / 14°C 83% 29.77 in
(1008 mb)
SE 9.2 mph
(SE 15 kph)
- 5SM
15:53
Overcast
Fog And Mist
63°F / 17°C 57°F / 14°C 83% 29.77 in
(1008 mb)
E 12.7 mph
(E 20 kph)
0.00 in
(0.00 mm)
6SM
14:53
Overcast
61°F / 16°C 57°F / 14°C 88% 29.8 in
(1009 mb)
ENE 4.6 mph
(ENE 7 kph)
0.01 in
(0.25 mm)
7SM
13:53
Overcast
Light Rain
61°F / 16°C 57°F / 14°C 88% 29.8 in
(1009 mb)
ESE 6.9 mph
(ESE 11 kph)
0.01 in
(0.25 mm)
5SM
12:53
Overcast
Light Rain
59°F / 15°C 55°F / 13°C 88% 29.83 in
(1010 mb)
SE 8.1 mph
(SE 13 kph)
0.00 in
(0.00 mm)
4SM
11:53
Overcast
Hazy
59°F / 15°C 54°F / 12°C 82% 29.83 in
(1010 mb)
ESE 5.8 mph
(ESE 9 kph)
- 5SM
10:53
Overcast
Fog And Mist
57°F / 14°C 54°F / 12°C 88% 29.8 in
(1009 mb)
E 9.2 mph
(E 15 kph)
- 3SM
10:40
Overcast
Fog And Mist
55°F / 13°C 54°F / 12°C 94% 29.83 in
(1010 mb)
E 8.1 mph
(E 13 kph)
- 3SM
10:23
Overcast
Fog And Mist
55°F / 13°C 54°F / 12°C 94% 29.83 in
(1010 mb)
E 9.2 mph
(E 15 kph)
- 3SM
09:53
Overcast
Fog And Mist
55°F / 13°C 54°F / 12°C 94% 29.8 in
(1009 mb)
E 9.2 mph
(E 15 kph)
- 2 1/2SM
09:33
Overcast
Fog And Mist
55°F / 13°C 54°F / 12°C 94% 29.8 in
(1009 mb)
E 10.4 mph
(E 17 kph)
- 2SM
08:53
Overcast
Fog And Mist
54°F / 12°C 52°F / 11°C 94% 29.8 in
(1009 mb)
ENE 9.2 mph
(ENE 15 kph)
- 1SM
08:44
Overcast
Fog And Mist
54°F / 12°C 54°F / 12°C 100% 29.8 in
(1009 mb)
E 9.2 mph
(E 15 kph)
- 1SM
07:53
Overcast
Fog And Mist
55°F / 13°C 54°F / 12°C 94% 29.8 in
(1009 mb)
E 9.2 mph
(E 15 kph)
- 3/4SM
06:53
Overcast
Fog
57°F / 14°C 57°F / 14°C 100% 29.8 in
(1009 mb)
ENE 8.1 mph
(ENE 13 kph)
- 1/2SM
06:33
Overcast
Fog
59°F / 15°C 57°F / 14°C 94% 29.83 in
(1010 mb)
ENE 9.2 mph
(ENE 15 kph)
- 1/2SM
06:22
Overcast
Fog And Mist
61°F / 16°C 57°F / 14°C 88% 29.83 in
(1010 mb)
NE 6.9 mph
(NE 11 kph)
- 1 3/4SM
06:10
Overcast
Fog And Mist
61°F / 16°C 59°F / 15°C 94% 29.83 in
(1010 mb)
ENE 3.5 mph
(ENE 6 kph)
- 5SM
06:01
Overcast
61°F / 16°C 59°F / 15°C 94% 29.83 in
(1010 mb)
Calm - 7SM
05:53
Mostly Cloudy
61°F / 16°C 57°F / 14°C 88% 29.83 in
(1010 mb)
ESE 3.5 mph
(ESE 6 kph)
- 7SM
05:22
Overcast
61°F / 16°C 59°F / 15°C 94% 29.8 in
(1009 mb)
ENE 4.6 mph
(ENE 7 kph)
- 8SM
05:13
Overcast
61°F / 16°C 59°F / 15°C 94% 29.8 in
(1009 mb)
E 5.8 mph
(E 9 kph)
- 8SM
04:53
Overcast
61°F / 16°C 59°F / 15°C 94% 29.8 in
(1009 mb)
E 5.8 mph
(E 9 kph)
- 7SM
04:13
Overcast
Fog And Mist
61°F / 16°C 59°F / 15°C 94% 29.8 in
(1009 mb)
ESE 5.8 mph
(ESE 9 kph)
- 6SM
03:53
Overcast
61°F / 16°C 57°F / 14°C 88% 29.8 in
(1009 mb)
ESE 8.1 mph
(ESE 13 kph)
- 10SM
03:29
Overcast
59°F / 15°C 57°F / 14°C 94% 29.8 in
(1009 mb)
Calm - 8SM
03:19
Mostly Cloudy
Fog And Mist
57°F / 14°C 55°F / 13°C 94% 29.8 in
(1009 mb)
E 5.8 mph
(E 9 kph)
- 3SM
03:14
Mostly Cloudy
Fog And Mist
57°F / 14°C 55°F / 13°C 94% 29.8 in
(1009 mb)
NE 3.5 mph
(NE 6 kph)
- 1SM
03:06
Obscured
Fog And Mist
57°F / 14°C 55°F / 13°C 94% 29.8 in
(1009 mb)
Calm - 3/4SM
02:58
Partly Cloudy
Fog And Mist
57°F / 14°C 55°F / 13°C 94% 29.8 in
(1009 mb)
Calm - 2 1/2SM
02:53
Mostly Cloudy
Fog And Mist
57°F / 14°C 57°F / 14°C 100% 29.8 in
(1009 mb)
Calm - 6SM
02:38
Partly Cloudy
57°F / 14°C 55°F / 13°C 94% 29.77 in
(1008 mb)
ENE 4.6 mph
(ENE 7 kph)
- 7SM
02:21
Clear
Fog And Mist
57°F / 14°C 55°F / 13°C 94% 29.77 in
(1008 mb)
E 4.6 mph
(E 7 kph)
- 3SM
02:10
Clear
Fog And Mist
57°F / 14°C 55°F / 13°C 94% 29.77 in
(1008 mb)
Calm - 1 3/4SM
02:03
Clear
Fog And Mist
57°F / 14°C 54°F / 12°C 88% 29.77 in
(1008 mb)
Calm - 3SM
01:53
Clear
Fog And Mist
55°F / 13°C 54°F / 12°C 94% 29.77 in
(1008 mb)
Calm - 2 1/2SM
00:53
Clear
59°F / 15°C 57°F / 14°C 94% 29.77 in
(1008 mb)
Calm - 9SM
Time Weather Temperature Dewpoint Humidity Pressure Winds Precip Visibility


Weather for websites

WeatherForYou.com, LLC is not responsible for any damages or problems caused by this service. Current weather conditions are obtained from the closest station including government and personal stations which may have varying degrees of accuracy. Weather forecasts are derived from the NOAA NDFD. Like all things, this site belongs to Jesus Christ... He just trusts us to maintain it. If you have any questions or comments email webmaster@weatherforyou.com

Copyright © 2016, WeatherForYou.com LLC. All rights reserved.